sat.trackr.live / text

‹ back to catalog

STARLINK-6291

NORAD 56547 · 2023-065AW

PAYLOAD ACTIVE UNKNOWN

§ Identity

Operator
Country
US
Launch date
2023-05-14
Launch site
AFETR
Launch vehicle
Mass (kg)
RCS (m²)

Purposes: comms

External: N2YO · Heavens-Above · Gunter

§ Orbital elements

Epoch: 2026-05-25T01:33:06.100416Z

Period
94.27 min
Inclination
43.0031°
Eccentricity
0.0001150
Mean motion
15.27575935 rev/d
Perigee alt
482.3 km
Apogee alt
483.9 km
Semi-major
6,861.2 km
B*
1.6800e-6
RAAN
152.1767°
Arg perigee
305.7051°
Mean anomaly
54.3693°
Rev number
16,815

§ Raw data

STARLINK-62911 56547U 23065AW  26145.06465394 -.00000216  00000+0  16800-5 0  99972 56547  43.0031 152.1767 0001150 305.7051  54.3693 15.27575935168157

JSON: /api/v1/satellites/56547 · /tle

For live sub-satellite position, see the globe view (requires WebGL).

§ Visibility from observer

Set your observer location to see the next 7 days of passes ≥ 10°. The values pass through the URL so the page stays shareable.

No JS? Fill the form by hand. The geolocation button needs JavaScript.